Flight Track Log - Related Links

Times and Time Zones

All times are in EDT time to prevent confusion due to time zone crossing. See the DAL2082 flight status page for this flight to view local times or setup timezone preferences in your user account.

Time Position Orientation Groundspeed Altitude Reporting Facility
EDT Latitude Longitude Course Direction KTS MPH feet Rate Location/Type
Fri 12:26:58 PM 26.5342 -81.8997 336° Northwest 245 282 6,100  Level Miami Center
Fri 12:27:00 PM 26.8647 -81.7333 North  Level FlightAware Approximate
Fri 12:27:58 PM 26.6089 -81.9144 350° North 229 264 9,500  Level Miami Center
Fri 12:28:00 PM 26.9756 -81.7333 North  Level FlightAware Approximate
Fri 12:28:58 PM 26.6944 -81.9111 North 253 291 11,500  Level Miami Center
Fri 12:29:00 PM 27.0825 -81.7597 340° North  Level FlightAware Approximate
Fri 12:29:58 PM 26.7956 -81.8853 13° North 325 374 13,600  Level Miami Center
Fri 12:30:00 PM 27.1895 -81.7912 350° North  Level FlightAware Approximate
Fri 12:30:58 PM 26.8917 -81.8242 30° Northeast 350 403 16,000  Level Miami Center
Fri 12:31:00 PM 27.2940 -81.8303 336° Northwest  Level FlightAware Approximate
Fri 12:31:58 PM 26.9919 -81.7656 28° Northeast 372 428 18,000  Level Miami Center
Fri 12:32:00 PM 27.3997 -81.8582 336° Northwest  Level FlightAware Approximate
Fri 12:32:58 PM 27.1128 -81.7683 359° North 384 442 20,400  Level Miami Center
Fri 12:33:58 PM 27.2161 -81.8008 344° North 390 449 22,400 1,900 Climbing Miami Center
Fri 12:34:58 PM 27.3319 -81.8314 347° North 416 479 24,200 1,750 Climbing Miami Center
Fri 12:35:58 PM 27.4622 -81.8650 347° North 437 503 25,900 1,550 Climbing Miami Center
Fri 12:36:58 PM 27.5861 -81.9008 346° North 442 509 27,300 681 Climbing Miami Center
Fri 12:39:03 PM 27.8525 -81.9747 346° North 462 532 28,000 227 Climbing Jacksonville Center
Fri 12:40:03 PM 27.9758 -82.0136 344° North 462 532 28,000  Level Jacksonville Center
Fri 12:41:03 PM 28.0828 -82.0950 326° Northwest 455 524 28,000  Level Jacksonville Center
Fri 12:42:03 PM 28.1731 -82.1814 320° Northwest 462 532 28,000 -550 Level Jacksonville Center
Fri 12:43:03 PM 28.2736 -82.2728 321° Northwest 462 532 26,900 -1,000 Descending Jacksonville Center
Fri 12:44:03 PM 28.3722 -82.3594 322° Northwest 462 532 26,000 -450 Descending Jacksonville Center
Fri 12:45:03 PM 28.4725 -82.4486 322° Northwest 457 526 26,000  Level Jacksonville Center
Fri 12:46:03 PM 28.5731 -82.5381 322° Northwest 457 526 26,000  Level Jacksonville Center
Fri 12:47:03 PM 28.6692 -82.6275 321° Northwest 452 520 26,000  Level Jacksonville Center
Fri 12:48:03 PM 28.7781 -82.7244 322° Northwest 452 520 26,000  Level Jacksonville Center
Fri 12:49:03 PM 28.8761 -82.8144 321° Northwest 452 520 26,000  Level Jacksonville Center
Fri 12:50:03 PM 28.9742 -82.9044 321° Northwest 452 520 26,000  Level Jacksonville Center
Fri 12:51:03 PM 29.0722 -82.9947 321° Northwest 452 520 26,000  Level Jacksonville Center
Fri 12:52:03 PM 29.1703 -83.0853 321° Northwest 452 520 26,000  Level Jacksonville Center
Fri 12:53:03 PM 29.2661 -83.1733 321° Northwest 452 520 26,000  Level Jacksonville Center
Fri 12:54:03 PM 29.3558 -83.2547 322° Northwest 440 506 26,000  Level Jacksonville Center
Fri 12:55:03 PM 29.4431 -83.3339 322° Northwest 421 484 26,000  Level Jacksonville Center
Fri 12:56:03 PM 29.5325 -83.4200 320° Northwest 415 478 26,000  Level Jacksonville Center
Fri 12:57:03 PM 29.6219 -83.5017 322° Northwest 415 478 26,000  Level Jacksonville Center
Fri 12:58:03 PM 29.7133 -83.5836 322° Northwest 415 478 26,000  Level Jacksonville Center
Fri 12:59:03 PM 29.8028 -83.6681 321° Northwest 420 483 26,000  Level Jacksonville Center
Fri 01:00:03 PM 29.8942 -83.7528 321° Northwest 420 483 26,000  Level Jacksonville Center
Fri 01:01:03 PM 29.9853 -83.8375 321° Northwest 420 483 26,000  Level Jacksonville Center
Fri 01:02:03 PM 30.0786 -83.9247 321° Northwest 420 483 26,000  Level Jacksonville Center
Fri 01:03:03 PM 30.1719 -84.0122 321° Northwest 425 489 26,000  Level Jacksonville Center
Fri 01:04:03 PM 30.2650 -84.0975 322° Northwest 425 489 26,000  Level Jacksonville Center
Fri 01:05:03 PM 30.3394 -84.1706 320° Northwest 425 489 26,000  Level Jacksonville Center
Fri 01:06:03 PM 30.4450 -84.2683 321° Northwest 431 496 26,000  Level Jacksonville Center
Fri 01:07:03 PM 30.5400 -84.3567 321° Northwest 436 502 26,000  Level Jacksonville Center
Fri 01:08:03 PM 30.6686 -84.4142 339° North 436 502 26,000  Level Jacksonville Center
Fri 01:09:03 PM 30.7914 -84.4500 346° North 445 512 26,000  Level Jacksonville Center
Fri 01:10:03 PM 30.9100 -84.4906 344° North 445 512 26,000  Level Jacksonville Center
Fri 01:11:03 PM 31.0306 -84.5292 345° North 440 506 26,000  Level Jacksonville Center
Fri 01:12:03 PM 31.1533 -84.5700 344° North 440 506 26,000 -250 Level Jacksonville Center
Fri 01:13:03 PM 31.2572 -84.6058 344° North 440 506 25,500 -603 Descending Jacksonville Center
Fri 01:15:22 PM 31.5383 -84.6992 344° North 442 509 24,000 -452 Descending Atlanta Center
Fri 01:16:22 PM 31.6736 -84.7442 344° North 448 516 24,000  Level Atlanta Center
Fri 01:17:22 PM 31.7967 -84.7842 345° North 453 521 24,000  Level Atlanta Center
Fri 01:18:22 PM 31.9172 -84.8267 343° North 453 521 24,000  Level Atlanta Center
Fri 01:19:22 PM 32.0361 -84.8669 344° North 453 521 24,000  Level Atlanta Center
Fri 01:20:22 PM 32.1547 -84.9072 344° North 448 516 24,000  Level Atlanta Center
Fri 01:21:22 PM 32.2797 -84.9428 346° North 448 516 24,000  Level Atlanta Center
Fri 01:22:22 PM 32.3983 -84.9836 344° North 448 516 24,000  Level Atlanta Center
Fri 01:23:22 PM 32.5336 -85.0292 344° North 458 527 24,000 -650 Level Atlanta Center
Fri 01:24:22 PM 32.6442 -85.0675 344° North 458 527 22,700 -1,300 Descending Atlanta Center
Fri 01:25:22 PM 32.7586 -85.1033 345° North 446 513 21,400 -1,350 Descending Atlanta Center
Fri 01:26:22 PM 32.8794 -85.1272 351° North 438 504 20,000 -1,900 Descending Atlanta Center
Fri 01:27:22 PM 32.9986 -85.0914 14° North 427 491 17,600 -2,200 Descending Atlanta Center
Fri 01:28:22 PM 33.1033 -85.0556 16° North 427 491 15,600 -1,800 Descending Atlanta Center
Fri 01:29:22 PM 33.2125 -84.9947 25° Northeast 427 491 14,000 -900 Descending Atlanta Center
Fri 01:30:22 PM 33.2842 -84.8986 48° Northeast 404 465 13,800 -750 Descending Atlanta Center
Fri 01:31:22 PM 33.3578 -84.7997 48° Northeast 391 450 12,500 -900 Descending Atlanta Center
Fri 01:32:22 PM 33.4356 -84.7183 41° Northeast 375 432 12,000 -250 Descending Atlanta Center
Fri 01:33:22 PM 33.5297 -84.6692 24° Northeast 366 421 12,000  Level Atlanta Center
Fri 01:34:22 PM 33.6114 -84.6275 23° Northeast 333 383 12,000  Level Atlanta Center
Fri 01:35:22 PM 33.6700 -84.5581 45° Northeast 268 308 12,000 -600 Level Atlanta Center
Fri 01:36:22 PM 33.6933 -84.4683 73° East 263 303 10,800 -1,338 Descending Atlanta Center
Fri 01:37:32 PM 33.7167 -84.3667 75° East 266 306 9,100 -1,615 Descending Atlanta TRACON
Fri 01:38:32 PM 33.7333 -84.2833 76° East 247 284 7,300 -1,500 Descending Atlanta TRACON
Fri 01:39:32 PM 33.7333 -84.2000 90° East 247 284 6,100 -947 Descending Atlanta TRACON
Fri 01:40:26 PM 33.7333 -84.1333 90° East 231 266 5,500 -600 Descending Atlanta TRACON
Fri 01:41:32 PM 33.6833 -84.1333 180° South 185 213 4,900 -571 Descending Atlanta TRACON
Fri 01:42:32 PM 33.6667 -84.2000 253° West 191 220 4,300 -600 Descending Atlanta TRACON

Login

Don't have an account? Register now (free) for customized features, flight alerts, and more!